Powrót do katalogu

STARLINK-35871

AktywnyŁącznośćVLEO
NORAD 66566·PAYLOAD·🇺🇸 United States

Wystrzelony Nov 21, 2025 z Cape Canaveral Space Force Station

Loading…

Następne Przeloty (najbliższe 24 godziny)

TLE

ŚwieżeSource: CelesTrak SupGP

Epoka: Sep 15, 2026, 03:42 UTC

1 66566C 25268K   26258.15465278  .00041013  00000+0  14851-2 0  2580
2 66566  43.0031 356.8278 0001450 270.5420 271.6443 15.27566283    14

Śledź STARLINK-35871 w czasie rzeczywistym z AllMySat

Download on the App Store